EW2327 Weather Reports


Display with metric or nautical units.
time (UTC)temp
F
wind
direction
speed
MPH
gust
MPH
rain 1hr
in
rain 24hr
in
rain mn
in
humidity
%
barometer
mb
20260509093016 72 196 0.0 0.0 0.01 0.01 0.01 88 1006.6
20260509091517 72 196 0.0 0.0 0.01 0.01 0.01 88 1006.4
20260509090016 72 196 0.0 0.0 0.00 0.00 0.00 88 1006.4
20260509084517 72 196 0.0 0.0 0.00 0.00 0.00 88 1006.6
20260509083018 72 196 0.0 0.0 0.00 0.00 0.00 88 1006.7
20260509081520 72 196 0.0 0.0 0.00 0.00 0.00 88 1006.6
20260509080014 72 196 0.0 0.0 0.00 0.00 0.00 88 1006.6
20260509074513 72 196 0.0 2.0 0.00 0.00 0.00 88 1006.4
20260509073013 72 196 0.0 3.0 0.00 0.00 0.00 88 1006.4
20260509071517 72 196 0.0 2.0 0.00 0.00 0.00 88 1006.7
20260509070012 72 196 0.0 2.0 0.00 0.00 0.00 88 1006.9
20260509064509 72 196 1.0 6.0 0.00 0.00 0.00 88 1006.7
20260509063008 72 169 2.0 6.0 0.00 0.00 0.00 88 1006.4
20260509061508 72 163 2.0 8.0 0.00 0.00 0.00 87 1006.5
20260509060009 72 181 3.0 9.0 0.00 0.00 0.00 87 1006.6
20260509054510 72 142 4.0 12.0 0.00 0.00 0.00 87 1006.5
20260509053002 73 173 4.0 9.0 0.00 0.00 0.00 86 1006.6
20260509051559 73 200 4.0 9.0 0.00 0.00 0.00 86 1006.6
20260509050059 73 181 2.0 8.0 0.00 0.00 0.00 85 1006.4
20260509044555 73 145 2.0 5.0 0.00 0.00 0.00 85 1006.2
20260509043100 73 188 1.0 3.0 0.00 0.00 0.00 84 1006.2
20260509041554 73 188 1.0 3.0 0.00 0.00 0.00 84 1006.4
20260509040055 74 188 1.0 3.0 0.00 0.00 0.00 84 1006.7
20260509034600 74 188 0.0 3.0 0.00 0.00 0.00 83 1006.8
20260509033051 73 188 0.0 2.0 0.00 0.00 0.00 83 1006.6
20260509031559 73 188 1.0 4.0 0.00 0.00 0.00 83 1006.4
20260509030051 74 188 2.0 4.0 0.00 0.00 0.00 82 1006.2
20260509024550 74 188 0.0 2.0 0.00 0.00 0.00 82 1006.2
20260509023056 74 188 0.0 2.0 0.00 0.00 0.00 81 1006.3
20260509021550 74 188 0.0 2.0 0.00 0.00 0.00 81 1006.0
20260509020055 74 188 0.0 3.0 0.00 0.00 0.00 80 1005.5
20260509014548 74 188 0.0 2.0 0.00 0.00 0.00 80 1005.2
20260509013108 75 188 1.0 4.0 0.00 0.00 0.00 81 1005.2
20260509011547 75 184 1.0 3.0 0.00 0.00 0.00 80 1005.5
20260509010048 75 184 0.0 3.0 0.00 0.00 0.00 80 1005.4
20260509004543 76 184 1.0 5.0 0.00 0.00 0.00 80 1005.2
20260509003043 76 178 1.0 4.0 0.00 0.00 0.00 80 1005.1
20260509001542 76 138 2.0 9.0 0.00 0.00 0.00 79 1005.2
20260509000042 76 192 3.0 7.0 0.00 0.00 0.00 79 1005.2
20260508234541 77 135 2.0 7.0 0.00 0.00 0.00 79 1005.2
20260508233041 77 144 4.0 8.0 0.00 0.00 0.00 79 1005.2
20260508231547 77 183 4.0 8.0 0.00 0.00 0.00 78 1005.2
20260508230052 77 131 2.0 8.0 0.00 0.00 0.00 78 1005.3
20260508224556 77 146 3.0 7.0 0.00 0.00 0.00 78 1005.3
20260508223037 77 158 4.0 7.0 0.00 0.00 0.00 78 1005.4
20260508221536 77 203 3.0 6.0 0.00 0.00 0.00 77 1005.5
20260508220036 77 183 1.0 7.0 0.00 0.00 0.00 77 1005.5
20260508214534 78 171 3.0 8.0 0.00 0.00 0.00 77 1005.6
20260508213036 78 172 4.0 9.0 0.00 0.00 0.00 77 1005.7
20260508211532 78 161 3.0 10.0 0.00 0.00 0.00 77 1005.9
20260508210032 77 198 2.0 8.0 0.00 0.00 0.00 78 1006.1
20260508204527 77 138 4.0 8.0 0.00 0.00 0.00 77 1006.4
20260508203026 78 167 3.0 7.0 0.00 0.00 0.00 77 1006.5
20260508201530 78 196 3.0 7.0 0.00 0.00 0.00 77 1006.7
20260508200027 78 48 3.0 9.0 0.00 0.00 0.00 78 1006.8
20260508194522 78 196 2.0 7.0 0.00 0.00 0.00 78 1006.8
20260508193026 77 222 2.0 8.0 0.00 0.00 0.00 79 1007.1
20260508191516 77 168 2.0 6.0 0.00 0.00 0.00 79 1007.3
20260508190026 75 153 1.0 5.0 0.00 0.00 0.00 79 1007.4
20260508184509 75 201 3.0 7.0 0.00 0.00 0.00 79 1007.7
20260508183008 75 159 1.0 5.0 0.00 0.00 0.00 79 1007.8
20260508181516 75 207 1.0 5.0 0.00 0.00 0.00 79 1008.1
20260508180004 75 59 2.0 8.0 0.00 0.00 0.00 80 1008.4
20260508174502 74 183 3.0 8.0 0.00 0.00 0.00 80 1008.5
20260508173003 74 102 2.0 8.0 0.00 0.00 0.00 80 1008.6
20260508171628 74 142 1.0 3.0 0.00 0.00 0.00 81 1008.6
20260508170059 73 275 0.0 4.0 0.00 0.00 0.00 81 1008.8
20260508164602 73 303 1.0 3.0 0.00 0.00 0.00 82 1008.7
20260508163056 72 198 0.0 4.0 0.00 0.00 0.00 82 1009.0
20260508161551 70 178 2.0 4.0 0.00 0.00 0.00 82 1009.3
20260508160042 68 163 2.0 4.0 0.00 0.00 0.00 82 1009.6
20260508154537 66 184 0.0 2.0 0.00 0.00 0.00 82 1009.9
20260508153039 65 184 0.0 2.0 0.00 0.00 0.00 82 1010.0
20260508151539 64 148 1.0 3.0 0.00 0.00 0.00 82 1010.3
20260508150029 64 148 0.0 3.0 0.00 0.00 0.00 82 1010.5
20260508144526 63 94 1.0 4.0 0.00 0.00 0.00 81 1010.5
20260508143024 63 355 1.0 3.0 0.00 0.00 0.00 81 1010.3
20260508141524 62 355 0.0 4.0 0.00 0.00 0.00 81 1010.5
20260508140023 62 306 1.0 4.0 0.00 0.00 0.00 81 1010.4
20260508134520 62 339 1.0 4.0 0.00 0.00 0.00 81 1010.4
20260508133021 62 55 1.0 6.0 0.00 0.00 0.00 81 1010.5
20260508131519 61 333 1.0 4.0 0.00 0.00 0.00 81 1010.4
20260508130017 61 325 0.0 3.0 0.00 0.00 0.00 81 1010.6
20260508124523 61 324 1.0 4.0 0.00 0.00 0.00 81 1010.6
20260508123016 61 334 2.0 5.0 0.00 0.00 0.00 80 1010.6
20260508121514 61 319 1.0 5.0 0.00 0.00 0.00 80 1010.5
20260508120015 61 299 1.0 3.0 0.00 0.00 0.00 80 1010.7
20260508114514 61 299 1.0 2.0 0.00 0.00 0.00 80 1010.8
20260508113014 61 299 0.0 2.0 0.00 0.00 0.00 80 1011.1
20260508111514 61 299 0.0 0.0 0.00 0.00 0.00 80 1011.3
20260508110015 61 299 0.0 3.0 0.00 0.00 0.00 80 1011.3
20260508104512 61 355 2.0 5.0 0.00 0.00 0.00 80 1010.8
20260508103013 61 323 1.0 5.0 0.00 0.00 0.00 79 1010.9
20260508101511 61 337 2.0 5.0 0.00 0.00 0.00 79 1010.8
20260508100010 61 338 1.0 4.0 0.00 0.00 0.00 79 1010.5
20260508094508 61 330 1.0 4.0 0.00 0.00 0.00 78 1010.9